Regional Weather Roundup
Issued by NWS

Home | Current Version | Previous Version | Graphics & Text | Print | Product List | Glossary On
Versions: 1 2 3 4 5 6 7 8 9 10 11 12 13 14 15 16 17 18 19 20 21 22 23 24 25 26 27 28 29 30 31 32 33 34 35 36 37 38 39 40 41 42 43 44 45 46 47 48 49 50
000
ASUS43 KMPX 190310
RWRMN
WEATHER ROUNDUP FOR MINNESOTA
NATIONAL WEATHER SERVICE TWIN CITIES/CHANHASSEN MN
1000 PM CDT WED OCT 18 2017


NOTE: "FAIR" INDICATES FEW OR NO CLOUDS BELOW 12,000 FEET WITH NO
SIGNIFICANT WEATHER AND/OR OBSTRUCTIONS TO VISIBILITY. N/A MEANS
CURRENT SKY AND/OR WEATHER CONDITIONS ARE NOT AVAILABLE.

MNZ060>063-068>070-190400-
   Twin Cities Metro

CITY           SKY/WX    TMP DP  RH WIND       PRES   REMARKS
TWIN CITIES    PTCLDY    55  27  34 W10       30.00R
ST PAUL        CLEAR     56  25  30 W13       30.00R
BLAINE         CLEAR     55  27  33 W9        29.99R
LAKEVILLE      CLEAR     50  28  43 W5        30.01R
EDEN PRAIRIE   CLEAR     52  28  39 W8        30.00R
SOUTH ST PAUL  CLEAR     56  24  29 W8        30.00R
LAKE ELMO      FAIR      54  28  37 W10       29.99R
$$
MNZ001>005-007-008-013>017-022>024-027-028-190400-
   Northwest Minnesota

CITY           SKY/WX    TMP DP  RH WIND       PRES   REMARKS
BEMIDJI        CLEAR     48  18  30 W14G21    29.87R
HALLOCK        CLEAR     48  12  23 W15       29.82R
ROSEAU         CLEAR     52  14  22 W21G29    29.77R
WARROAD        CLEAR     50  19  29 W18G26    29.75R
THIEF RVR FALL CLEAR     48  20  32 W17       29.87R
CROOKSTON      CLEAR     48  19  32 W13       29.90R
FOSSTON        CLEAR     46  18  31 W14       29.90R
DETROIT LAKES  CLEAR     50  23  34 W10       29.94R
MOORHEAD       CLOUDY    46  23  39 SW9       29.95F
PARK RAPIDS    CLEAR     43  25  49 W12       29.91R
MAHNOMEN       FAIR      45  22  39 W12       29.91S
$$
MNZ006-009>011-018-025>026-190400-
   North Central Minnesota

CITY           SKY/WX    TMP DP  RH WIND       PRES   REMARKS
BAUDETTE       CLEAR     51  15  23 W20G36    29.75R
FLAG ISLAND    CLEAR     52  16  24 W17G26    29.68R
INTL FALLS     CLEAR     50  15  24 W16G24    29.74R
WASKISH        CLEAR     52  28  40 W21G32    29.81R
BIG FORK       CLEAR     52  16  24 W8G18     29.81R
LONGVILLE      CLEAR     50  18  27 W9G17     29.89R
GRAND RAPIDS   CLEAR     52  18  26 W13G18    29.87R
CRANE LAKE     CLEAR     48  12  23 W8        29.77R
ORR            CLEAR     48  12  23 W10G20    29.76R
COOK           CLEAR     50  16  25 W14G20    29.79S
WALKER         FAIR      49  19  29 W10       29.88R
$$
MNZ012-019>021-037-190400-
   Northeast Minnesota

CITY           SKY/WX    TMP DP  RH WIND       PRES   REMARKS
DULUTH         CLEAR     49  18  29 W15G24    29.84R
ELY            CLEAR     48  12  23 W13G21    29.77R
HIBBING        CLEAR     49  17  28 W8        29.82R
EVELETH        CLEAR     53  -2  10 W13G18    29.83R
DULUTH HARBOR  CLEAR     55  19  24 SW16G22   29.86R
TWO HARBORS    CLEAR     54  25  32 SW12G17   29.80R
SILVER BAY     CLEAR     54  16  22 W7        29.78R
GRAND MARAIS     N/A     52  23  32 W8        29.73R
G MARAIS ARPRT CLEAR     48  12  23 W14G22    29.73R
$$
MNZ029>031-032-039>041-046>048-054>057-064-190400-
   West Central Minnesota

CITY           SKY/WX    TMP DP  RH WIND       PRES   REMARKS
FERGUS FALLS   CLOUDY    43  27  52 W7        29.98S
WHEATON        CLOUDY    45  30  57 SW6       30.01S
MORRIS         CLOUDY    43  34  70 W8        29.99S
ALEXANDRIA     CLOUDY    47  26  44 W9        29.98F
ELBOW LAKE     FAIR      41  28  60 CALM      29.99R
WADENA         CLEAR     45  27  49 W6        29.95R
GLENWOOD       CLOUDY    43  34  70 SW12      29.99F
APPLETON       CLOUDY    45  30  57 W7        30.01S
BENSON         CLOUDY    45  30  57 W8        30.02F
ORTONVILLE     CLOUDY    46  30  53 CALM      30.02R
MADISON        CLOUDY    48  32  53 SW6       30.03R
WILLMAR        FAIR      46  34  61 W7        30.02F
$$
MNZ033>034-036-042>043-049>051-058-059-190400-
   Central Minnesota

CITY           SKY/WX    TMP DP  RH WIND       PRES   REMARKS
ST CLOUD       CLOUDY    48  30  49 W8        29.99R
SAUK CENTRE    FAIR      46  30  54 SW8       29.98S
PAYNESVILLE    CLOUDY    44  34  67 SW6       30.00F
AITKIN         CLOUDY    48  18  29 SW10G16   29.89S
PINE RIVER     CLOUDY    46  19  34 W3        29.95R
BRAINERD       CLOUDY    49  19  30 W9        29.94R
STAPLES        CLOUDY    45  21  39 SW5       29.94S
LONG PRAIRIE   FAIR      45  27  49 S6        29.98R
LITTLE FALLS   CLOUDY    46  16  29 SW3       29.97R
LITCHFIELD     CLEAR     52  30  43 W5        30.02R
BUFFALO        CLEAR     51  28  41 W7        30.01R
MAPLE LAKE     CLOUDY    51  32  47 SW6       30.01R
HUTCHINSON     CLEAR     45  33  62 W5        30.04R
$$
MNZ037-044-045-052-053-190400-
   East Central Minnesota

CITY           SKY/WX    TMP DP  RH WIND       PRES   REMARKS
PRINCETON      PTCLDY    52  28  40 SW6       29.98R
MORA           CLOUDY    48  28  46 SW3       29.97R
CAMBRIDGE      CLOUDY    54  34  47 W6        29.97R
RUSH CITY      CLOUDY    51  28  41 W7        29.96R
MOOSE LAKE     CLOUDY    50  19  29 SW7       29.88S
HINCKLEY       FAIR      50  27  40 SW7       29.94R
CLOQUET        CLOUDY    52  10  19 SW12      29.86S
MCGREGOR       CLOUDY    52  18  25 W9        29.90R
$$
MNZ071>073-080-081-089-090-097-098-190400-
   Southwest Minnesota

CITY           SKY/WX    TMP DP  RH WIND       PRES   REMARKS
MONTEVIDEO     CLOUDY    48  28  46 W3        30.03S
GRANITE FALLS  CLOUDY    42  34  72 SW7       30.04F
CANBY          CLOUDY    48  31  52 SW5       30.05R
MARSHALL       CLOUDY    45  32  60 W5        30.06R
REDWOOD FALLS  CLOUDY    51  26  37 W3        30.03S
OLIVIA         CLOUDY    45  32  61 W3        30.02S
PIPESTONE      CLOUDY    46  30  53 CALM      30.06R
WORTHINGTON    CLEAR     44  35  70 W3        30.06R
JACKSON        CLEAR     50  32  50 CALM      30.06R
TRACY          CLOUDY    52  32  45 W3        30.05S
SLAYTON        CLEAR     45  29  53 W3        30.06R
$$
MNZ065>067-074>077-082>085-091>093-190400-
   South Central Minnesota

CITY           SKY/WX    TMP DP  RH WIND       PRES   REMARKS
MANKATO        CLEAR     51  29  42 NW7       30.04R
NEW ULM          N/A     48  28  46 CALM      30.04R
ST JAMES       CLOUDY    41  34  75 NW7       30.06R
FAIRMONT       CLOUDY    48  33  56 NW6       30.05R
GLENCOE        CLEAR     49  31  50 W7        30.02R
FARIBAULT      CLOUDY    52  28  40 W7        30.03R
OWATONNA       CLOUDY    50  30  46 W7        30.03R
WASECA         PTCLDY    50  32  50 NW5       30.04S
$$
MNZ078>079-086>088-094>096-190400-
   Southeast Minnesota

CITY           SKY/WX    TMP DP  RH WIND       PRES   REMARKS
ROCHESTER      CLOUDY    53  34  48 NW12      30.01R
RED WING       PTCLDY    55  19  24 W7        29.98R
STANTON        CLOUDY    53  29  40 W6        30.00R
DODGE CENTER   PTCLDY    54  27  35 NW10      30.02R
WINONA         CLEAR     59  34  38 NW7       29.98R
AUSTIN         CLOUDY    54  32  43 NW7       30.02R
PRESTON        CLOUDY    55  34  46 NW10      30.01R
$$
ABBREVIATIONS USED IN REMARKS
   TC - TEMPERATURES IN CELSIUS
  WCI - WIND CHILL INDEX
   HX - HEAT INDEX
  VSB - VISIBILITY
$$



USA.gov is the U.S. government's official web portal to all federal, state and local government web resources and services.